Location: Arlington
(40.6323°N, 74.1651°W)
Time: 08:11:49
(UTC+00:00)

NOAA 11 - Pass Details

Date: 23 February 2020
Orbit: 834 x 849 km, 98.4° (Epoch: 04 April)

Event Time Altitude Azimuth Distance (km) Brightness Sun altitude
Rises 10:58:29 0° 34° (NE) 3,389 7.8 -8.6°
Reaches altitude 10° 11:02:11 10° 60° (ENE) 2,450 7.5 -7.9°
Maximum altitude 11:04:50 14° 89° (E) 2,196 7.9 -7.4°
Drops below altitude 10° 11:07:29 10° 119° (ESE) 2,445 7.9 -6.9°
Sets 11:11:08 0° 145° (SE) 3,376 8.0 -6.3°
